sat.trackr.live / text

‹ back to catalog

STARLINK-36217

NORAD 67120 · 2025-299U

PAYLOAD ACTIVE UNKNOWN

§ Identity

Operator
Country
US
Launch date
2025-12-15
Launch site
AFETR
Launch vehicle
Mass (kg)
RCS (m²)

Purposes: comms

External: N2YO · Heavens-Above · Gunter

§ Orbital elements

Epoch: 2026-09-19T23:01:33.945888Z

Period
94.27 min
Inclination
43.0019°
Eccentricity
0.0001673
Mean motion
15.27587445 rev/d
Perigee alt
481.9 km
Apogee alt
484.2 km
Semi-major
6,861.2 km
B*
6.1422e-4
RAAN
152.1650°
Arg perigee
228.6610°
Mean anomaly
131.4098°
Rev number
4,282

§ Raw data

STARLINK-362171 67120U 25299U   26262.95942067  .00016682  00000+0  61422-3 0  99932 67120  43.0019 152.1650 0001673 228.6610 131.4098 15.27587445 42827

JSON: /api/v1/satellites/67120 · /tle

For live sub-satellite position, see the globe view (requires WebGL).

§ Visibility from observer

Set your observer location to see the next 7 days of passes ≥ 10°. The values pass through the URL so the page stays shareable.

No JS? Fill the form by hand. The geolocation button needs JavaScript.